Location: Castelnau
(43.6639°N, 0.8431°W)
Time: 19:08:38
(UTC+00:00)

Lacrosse 5 rocket - Pass Details

Date: 13 January 2026
Orbit: 401 x 482 km, 57.0° (Epoch: 11 February)

Event Time Altitude Azimuth Distance (km) Brightness Sun altitude
Exits shadow 06:53:07 - 324° (NW) 1,979 3.6 -7.6°
Reaches altitude 10° 06:54:47 10° 345° (NNW) 1,687 3.5 -7.3°
Maximum altitude 06:55:51 11° 1° (N) 1,630 3.5 -7.2°
Drops below altitude 10° 06:56:55 10° 18° (NNE) 1,688 3.8 -7.0°
Sets 07:00:41 0° 56° (NE) 2,566 5.2 -6.4°
